Regional Weather Roundup
Issued by NWS

Home | Current Version | Previous Version | Text Only | Print | Product List | Glossary Off
Versions: 1 2 3 4 5 6 7 8 9 10 11 12 13 14 15 16 17 18 19 20 21 22 23 24 25 26 27 28 29 30 31 32 33 34 35 36 37 38 39 40 41 42 43 44 45 46 47 48 49 50

000
ASUS43 KLSX 301957
RWRMO

WEATHER SUMMARY FOR MISSOURI
NATIONAL WEATHER SERVICE SPRINGFIELD MO
300 PM CDT SAT APR 30 2016

NOTE: "FAIR" INDICATES FEW OR NO CLOUDS BELOW 12,000 FEET WITH NO
       SIGNIFICANT WEATHER AND/OR OBSTRUCTIONS TO VISIBILITY.
       CURRENT SKY AND/OR WEATHER CONDITIONS ARE NOT AVAILABLE FOR
       CHILLICOTHE AND FARMINGTON.

MOZ001>031-035>038-043-044-053-054-302100-
...NORTHERN AND WESTERN MISSOURI...

CITY           SKY/WX    TMP DP  RH WIND       PRES   REMARKS
KANSAS CTY INT PTSUNNY   64  51  62 W14G23    29.73R
LEE`S SUMMIT   MOSUNNY   66  52  60 W13G25    29.72S
ST JOSEPH      CLOUDY    61  53  75 SW14      29.73R
CHILLICOTHE      N/A     71  62  73 NW8       29.69R

$$
MOZ066>068-077>081-088>096-101>105-302100-
...SOUTHWEST MISSOURI...

CITY           SKY/WX    TMP DP  RH WIND       PRES   REMARKS
SPRINGFIELD    PTSUNNY   73  60  63 W16       29.74R
JOPLIN         PTSUNNY   70  57  63 W16G22    29.76R
BRANSON        PTSUNNY   73  61  64 SW6       29.75R

$$
MOZ032>034-039>042-045>050-055>058-069>072-302100-
...CENTRAL MISSOURI...

CITY           SKY/WX    TMP DP  RH WIND       PRES   REMARKS
COLUMBIA       NOT AVBL
JEFFERSON CITY MOSUNNY   74  59  59 W12       29.69R
ROLLA          MOSUNNY   73  62  68 SW17      29.71R
SEDALIA        MOSUNNY   73  57  57 W17G26    29.71R
WARRENSBURG    MOSUNNY   66  54  63 SW14G23   29.72R

$$
MOZ051-052-059>065-302100-
...EAST CENTRAL MISSOURI...

CITY           SKY/WX    TMP DP  RH WIND       PRES   REMARKS
ST LOUIS INTL  CLOUDY    71  62  73 VRB7      29.75R
ST CHARLES     CLOUDY    70  64  83 SE8       29.73S

$$
MOZ072>076-082>087-097>100-106>115-302100-
...SOUTH CENTRAL AND SOUTHEAST MISSOURI...

CITY           SKY/WX    TMP DP  RH WIND       PRES   REMARKS
CAPE GIRARDEAU CLOUDY    71  61  70 S12       29.79S
POPLAR BLUFF   CLOUDY    70  61  73 S8        29.76F
WEST PLAINS    PTSUNNY   71  59  65 SW8       29.76F

$$



USA.gov is the U.S. government's official web portal to all federal, state and local government web resources and services.